| time (UTC) | temp F | wind direction | speed MPH | gust MPH | rain 1hr in | rain 24hr in | rain mn in | humidity % | barometer mb |
| 20260903202517 | 75 | 338 | 2.0 | 4.0 | 0.00 | 0.36 | 0.36 | 86 | 1015.9 |
| 20260903201537 | 75 | 45 | 3.0 | 6.0 | 0.00 | 0.36 | 0.36 | 86 | 1015.8 |
| 20260903200517 | 76 | 338 | 2.0 | 5.0 | 0.00 | 0.36 | 0.36 | 87 | 1015.9 |
| 20260903195517 | 75 | 23 | 4.0 | 8.0 | 0.00 | 0.36 | 0.36 | 87 | 1015.9 |
| 20260903194538 | 76 | 45 | 1.0 | 4.0 | 0.00 | 0.36 | 0.36 | 84 | 1016.2 |
| 20260903193539 | 76 | 315 | 1.0 | 5.0 | 0.00 | 0.36 | 0.36 | 84 | 1016.3 |
| 20260903192517 | 75 | 90 | 3.0 | 6.0 | 0.00 | 0.36 | 0.36 | 86 | 1016.0 |
| 20260903191517 | 75 | 90 | 2.0 | 5.0 | 0.00 | 0.36 | 0.36 | 87 | 1016.0 |
| 20260903190517 | 74 | 90 | 2.0 | 4.0 | 0.00 | 0.36 | 0.36 | 90 | 1015.9 |
| 20260903185516 | 74 | 90 | 3.0 | 5.0 | 0.00 | 0.36 | 0.36 | 88 | 1016.0 |
| 20260903184517 | 74 | 90 | 4.0 | 7.0 | 0.00 | 0.36 | 0.36 | 89 | 1016.1 |
| 20260903183542 | 74 | 90 | 2.0 | 5.0 | 0.00 | 0.36 | 0.36 | 89 | 1016.1 |
| 20260903182517 | 73 | 90 | 5.0 | 9.0 | 0.00 | 0.36 | 0.36 | 90 | 1016.0 |
| 20260903181517 | 73 | 90 | 4.0 | 7.0 | 0.00 | 0.36 | 0.36 | 91 | 1016.0 |
| 20260903180517 | 73 | 90 | 7.0 | 10.0 | 0.00 | 0.36 | 0.36 | 91 | 1016.1 |
| 20260903175539 | 73 | 90 | 4.0 | 8.0 | 0.00 | 0.36 | 0.36 | 91 | 1016.2 |
| 20260903174517 | 72 | 45 | 3.0 | 5.0 | 0.00 | 0.36 | 0.36 | 91 | 1016.5 |
| 20260903173537 | 72 | 45 | 6.0 | 10.0 | 0.00 | 0.36 | 0.36 | 93 | 1015.9 |
| 20260903172518 | 71 | 45 | 7.0 | 10.0 | 0.00 | 0.36 | 0.36 | 93 | 1015.9 |
| 20260903171517 | 72 | 45 | 6.0 | 9.0 | 0.00 | 0.36 | 0.36 | 94 | 1015.9 |
| 20260903170517 | 71 | 45 | 4.0 | 7.0 | 0.00 | 0.36 | 0.36 | 94 | 1015.7 |
| 20260903165516 | 71 | 45 | 4.0 | 8.0 | 0.00 | 0.36 | 0.36 | 93 | 1015.4 |
| 20260903164517 | 71 | 45 | 4.0 | 7.0 | 0.00 | 0.36 | 0.36 | 94 | 1015.3 |
| 20260903163517 | 70 | 45 | 4.0 | 7.0 | 0.00 | 0.36 | 0.36 | 95 | 1015.2 |
| 20260903162517 | 70 | 23 | 5.0 | 8.0 | 0.05 | 0.36 | 0.36 | 95 | 1015.7 |
| 20260903161537 | 70 | 23 | 5.0 | 8.0 | 0.05 | 0.36 | 0.36 | 95 | 1016.0 |
| 20260903160516 | 69 | 338 | 4.0 | 7.0 | 0.07 | 0.36 | 0.36 | 95 | 1016.1 |
| 20260903155516 | 69 | 315 | 3.0 | 6.0 | 0.21 | 0.36 | 0.36 | 95 | 1016.6 |
| 20260903154516 | 69 | 0.0 | 1.0 | 0.34 | 0.36 | 0.36 | 96 | 1016.8 | |
| 20260903153516 | 69 | 248 | 1.0 | 2.0 | 0.36 | 0.36 | 0.36 | 96 | 1016.8 |
| 20260903152517 | 69 | 248 | 1.0 | 3.0 | 0.31 | 0.31 | 0.31 | 95 | 1016.7 |
| 20260903151516 | 69 | 0.0 | 1.0 | 0.31 | 0.31 | 0.31 | 95 | 1016.3 | |
| 20260903150556 | 69 | 315 | 1.0 | 3.0 | 0.29 | 0.29 | 0.29 | 94 | 1016.0 |
| 20260903150016 | 69 | 23 | 3.0 | 5.0 | 0.26 | 0.26 | 0.25 | 94 | 1015.3 |
| 20260903145016 | 70 | 270 | 1.0 | 3.0 | 0.06 | 0.06 | 0.06 | 91 | 1016.1 |
| 20260903144017 | 71 | 0.0 | 3.0 | 0.01 | 0.01 | 0.01 | 90 | 1015.8 | |
| 20260903143017 | 71 | 0.0 | 0.0 | 0.00 | 0.00 | 0.00 | 89 | 1015.7 | |
| 20260903142017 | 71 | 90 | 2.0 | 4.0 | 0.00 | 0.01 | 0.00 | 90 | 1015.7 |
| 20260903141016 | 71 | 0.0 | 2.0 | 0.00 | 0.01 | 0.00 | 91 | 1015.6 | |
| 20260903140036 | 71 | 68 | 1.0 | 3.0 | 0.00 | 0.01 | 0.00 | 91 | 1015.8 |
| 20260903135016 | 71 | 68 | 2.0 | 5.0 | 0.00 | 0.01 | 0.00 | 91 | 1015.7 |
| 20260903134016 | 71 | 68 | 3.0 | 7.0 | 0.00 | 0.01 | 0.00 | 91 | 1015.7 |
| 20260903133036 | 71 | 68 | 4.0 | 6.0 | 0.00 | 0.01 | 0.00 | 92 | 1015.4 |
| 20260903132016 | 70 | 68 | 3.0 | 6.0 | 0.00 | 0.01 | 0.00 | 93 | 1015.4 |
| 20260903131016 | 70 | 68 | 2.0 | 4.0 | 0.00 | 0.01 | 0.00 | 94 | 1015.5 |
| 20260903130036 | 70 | 68 | 3.0 | 8.0 | 0.00 | 0.02 | 0.00 | 95 | 1015.4 |
| 20260903125036 | 70 | 45 | 3.0 | 6.0 | 0.00 | 0.02 | 0.00 | 96 | 1015.5 |
| 20260903124016 | 69 | 68 | 2.0 | 5.0 | 0.00 | 0.02 | 0.00 | 95 | 1015.5 |
| 20260903123016 | 69 | 68 | 2.0 | 4.0 | 0.00 | 0.03 | 0.00 | 95 | 1015.4 |
| 20260903122036 | 69 | 68 | 2.0 | 4.0 | 0.00 | 0.03 | 0.00 | 95 | 1015.6 |
| 20260903121016 | 69 | 68 | 3.0 | 5.0 | 0.00 | 0.03 | 0.00 | 96 | 1015.6 |
| 20260903120016 | 69 | 45 | 4.0 | 7.0 | 0.00 | 0.03 | 0.00 | 95 | 1015.6 |
| 20260903115016 | 69 | 68 | 3.0 | 5.0 | 0.00 | 0.03 | 0.00 | 96 | 1015.6 |
| 20260903114017 | 69 | 45 | 3.0 | 5.0 | 0.00 | 0.03 | 0.00 | 96 | 1015.7 |
| 20260903113037 | 69 | 68 | 1.0 | 3.0 | 0.00 | 0.05 | 0.00 | 96 | 1015.8 |
| 20260903112016 | 69 | 68 | 1.0 | 3.0 | 0.00 | 0.05 | 0.00 | 96 | 1015.6 |
| 20260903111016 | 69 | 68 | 1.0 | 3.0 | 0.00 | 0.05 | 0.00 | 96 | 1015.6 |
| 20260903110016 | 69 | 45 | 1.0 | 2.0 | 0.00 | 0.05 | 0.00 | 97 | 1015.7 |
| 20260903105016 | 68 | 45 | 2.0 | 4.0 | 0.00 | 0.05 | 0.00 | 97 | 1015.7 |
| 20260903104037 | 68 | 68 | 1.0 | 3.0 | 0.00 | 0.05 | 0.00 | 97 | 1015.6 |
| 20260903103037 | 68 | 0.0 | 1.0 | 0.00 | 0.05 | 0.00 | 97 | 1015.7 | |
| 20260903102016 | 68 | 0.0 | 1.0 | 0.00 | 0.06 | 0.00 | 97 | 1015.7 | |
| 20260903101016 | 68 | 0.0 | 1.0 | 0.00 | 0.07 | 0.00 | 97 | 1015.7 | |
| 20260903100016 | 68 | 45 | 1.0 | 3.0 | 0.00 | 0.16 | 0.00 | 97 | 1015.6 |
| 20260903095017 | 68 | 45 | 1.0 | 3.0 | 0.00 | 0.19 | 0.00 | 97 | 1015.6 |
| 20260903094057 | 68 | 0.0 | 2.0 | 0.00 | 0.28 | 0.00 | 98 | 1015.6 | |
| 20260903093057 | 68 | 23 | 1.0 | 2.0 | 0.00 | 0.43 | 0.00 | 98 | 1015.7 |
| 20260903092037 | 68 | 0.0 | 0.0 | 0.00 | 0.45 | 0.00 | 98 | 1015.5 | |
| 20260903091016 | 68 | 23 | 1.0 | 2.0 | 0.00 | 0.45 | 0.00 | 98 | 1015.4 |
| 20260903090016 | 67 | 0 | 1.0 | 3.0 | 0.00 | 0.45 | 0.00 | 98 | 1015.3 |
| 20260903085036 | 67 | 0.0 | 1.0 | 0.00 | 0.45 | 0.00 | 98 | 1015.2 | |
| 20260903084016 | 67 | 0.0 | 0.0 | 0.00 | 0.45 | 0.00 | 98 | 1015.1 | |
| 20260903083036 | 67 | 0.0 | 0.0 | 0.00 | 0.45 | 0.00 | 98 | 1015.2 | |
| 20260903082016 | 67 | 0.0 | 0.0 | 0.00 | 0.45 | 0.00 | 98 | 1015.1 | |
| 20260903081016 | 67 | 0.0 | 0.0 | 0.00 | 0.45 | 0.00 | 98 | 1015.2 | |
| 20260903080016 | 67 | 0.0 | 0.0 | 0.00 | 0.45 | 0.00 | 98 | 1015.2 | |
| 20260903075016 | 67 | 0.0 | 1.0 | 0.00 | 0.45 | 0.00 | 98 | 1015.2 | |
| 20260903074016 | 67 | 0.0 | 0.0 | 0.00 | 0.45 | 0.00 | 98 | 1015.2 | |
| 20260903073016 | 67 | 0.0 | 0.0 | 0.00 | 0.45 | 0.00 | 98 | 1015.1 | |
| 20260903072016 | 67 | 0.0 | 0.0 | 0.00 | 0.45 | 0.00 | 98 | 1015.2 | |
| 20260903071016 | 68 | 0.0 | 0.0 | 0.00 | 0.45 | 0.00 | 98 | 1015.3 | |
| 20260903070017 | 68 | 0.0 | 0.0 | 0.00 | 0.45 | 0.00 | 97 | 1015.3 | |
| 20260903065035 | 68 | 0.0 | 0.0 | 0.00 | 0.45 | 0.00 | 97 | 1015.3 | |
| 20260903064016 | 68 | 0.0 | 0.0 | 0.00 | 0.45 | 0.00 | 97 | 1015.3 | |
| 20260903063016 | 68 | 0.0 | 0.0 | 0.00 | 0.45 | 0.00 | 97 | 1015.4 | |
| 20260903062016 | 68 | 0.0 | 0.0 | 0.00 | 0.45 | 0.00 | 97 | 1015.4 | |
| 20260903061015 | 68 | 0.0 | 0.0 | 0.00 | 0.45 | 0.00 | 97 | 1015.4 | |
| 20260903060036 | 68 | 0.0 | 0.0 | 0.00 | 0.45 | 0.00 | 97 | 1015.4 | |
| 20260903055015 | 69 | 0.0 | 0.0 | 0.00 | 0.45 | 0.00 | 97 | 1015.2 | |
| 20260903054016 | 68 | 0.0 | 0.0 | 0.00 | 0.45 | 0.00 | 97 | 1015.1 | |
| 20260903053016 | 69 | 0.0 | 0.0 | 0.00 | 0.45 | 0.00 | 97 | 1015.2 | |
| 20260903052015 | 69 | 0.0 | 0.0 | 0.00 | 0.45 | 0.00 | 97 | 1015.2 | |
| 20260903051015 | 69 | 0.0 | 0.0 | 0.00 | 0.45 | 0.00 | 96 | 1015.0 | |
| 20260903050016 | 69 | 0.0 | 0.0 | 0.00 | 0.45 | 0.45 | 96 | 1015.0 | |
| 20260903045017 | 70 | 0.0 | 0.0 | 0.00 | 0.45 | 0.45 | 96 | 1015.0 | |
| 20260903044016 | 70 | 0.0 | 1.0 | 0.00 | 0.45 | 0.45 | 96 | 1015.0 | |
| 20260903043016 | 70 | 0.0 | 1.0 | 0.00 | 0.45 | 0.45 | 97 | 1015.0 | |
| 20260903042016 | 70 | 0.0 | 0.0 | 0.00 | 0.45 | 0.45 | 97 | 1015.0 | |
| 20260903041015 | 70 | 0.0 | 0.0 | 0.00 | 0.45 | 0.45 | 97 | 1015.0 | |
| 20260903040016 | 70 | 0.0 | 0.0 | 0.00 | 0.45 | 0.45 | 97 | 1014.9 | |
| 20260903035015 | 70 | 0.0 | 0.0 | 0.00 | 0.45 | 0.45 | 97 | 1014.9 | |
| 20260903034015 | 70 | 0.0 | 0.0 | 0.00 | 0.45 | 0.45 | 97 | 1015.0 | |
| 20260903033015 | 70 | 0.0 | 0.0 | 0.00 | 0.45 | 0.45 | 97 | 1015.0 | |
| 20260903032015 | 70 | 0.0 | 0.0 | 0.00 | 0.45 | 0.45 | 97 | 1015.0 | |
| 20260903031016 | 70 | 0.0 | 0.0 | 0.00 | 0.45 | 0.45 | 96 | 1015.2 | |
| 20260903030016 | 70 | 0.0 | 0.0 | 0.00 | 0.45 | 0.45 | 96 | 1015.0 | |
| 20260903025017 | 70 | 0.0 | 0.0 | 0.00 | 0.45 | 0.45 | 96 | 1014.9 | |
| 20260903024016 | 70 | 0.0 | 0.0 | 0.00 | 0.45 | 0.45 | 96 | 1014.8 | |
| 20260903023016 | 70 | 0.0 | 0.0 | 0.00 | 0.45 | 0.45 | 96 | 1014.9 | |
| 20260903022015 | 71 | 0.0 | 0.0 | 0.00 | 0.45 | 0.45 | 95 | 1014.9 | |
| 20260903021015 | 71 | 0.0 | 0.0 | 0.00 | 0.45 | 0.45 | 96 | 1014.7 | |
| 20260903020016 | 71 | 0.0 | 0.0 | 0.00 | 0.45 | 0.45 | 95 | 1014.6 | |
| 20260903015017 | 72 | 0.0 | 0.0 | 0.00 | 0.45 | 0.45 | 95 | 1014.7 | |
| 20260903014017 | 72 | 0.0 | 0.0 | 0.00 | 0.45 | 0.45 | 95 | 1014.6 | |
| 20260903013018 | 73 | 0.0 | 0.0 | 0.00 | 0.45 | 0.45 | 94 | 1014.4 | |
| 20260903012017 | 73 | 0.0 | 0.0 | 0.00 | 0.45 | 0.45 | 93 | 1014.3 | |
| 20260903011018 | 74 | 0.0 | 0.0 | 0.00 | 0.45 | 0.45 | 91 | 1014.2 | |
| 20260903010018 | 74 | 0.0 | 0.0 | 0.00 | 0.45 | 0.45 | 91 | 1014.1 | |
| 20260903005017 | 75 | 0.0 | 0.0 | 0.00 | 0.45 | 0.45 | 89 | 1014.0 | |
| 20260903004018 | 75 | 0.0 | 0.0 | 0.00 | 0.45 | 0.45 | 88 | 1013.8 | |
| 20260903003017 | 77 | 0.0 | 1.0 | 0.00 | 0.45 | 0.45 | 84 | 1014.1 | |
| 20260903002017 | 78 | 0.0 | 1.0 | 0.00 | 0.45 | 0.45 | 82 | 1014.2 | |
| 20260903001017 | 79 | 0.0 | 0.0 | 0.00 | 0.45 | 0.45 | 81 | 1014.2 | |
| 20260903000017 | 79 | 0.0 | 0.0 | 0.00 | 0.45 | 0.45 | 81 | 1014.2 | |
| 20260902235017 | 81 | 0.0 | 0.0 | 0.00 | 0.45 | 0.45 | 77 | 1014.1 | |
| 20260902234017 | 81 | 0.0 | 0.0 | 0.00 | 0.45 | 0.45 | 77 | 1014.1 | |
| 20260902233017 | 81 | 0.0 | 1.0 | 0.00 | 0.45 | 0.45 | 77 | 1014.1 | |
| 20260902232038 | 82 | 0.0 | 1.0 | 0.00 | 0.45 | 0.45 | 76 | 1014.3 | |
| 20260902231038 | 81 | 0.0 | 1.0 | 0.00 | 0.45 | 0.45 | 75 | 1014.2 | |
| 20260902230017 | 81 | 248 | 1.0 | 2.0 | 0.00 | 0.45 | 0.45 | 76 | 1014.3 |
| 20260902225017 | 81 | 0.0 | 1.0 | 0.00 | 0.45 | 0.45 | 75 | 1014.2 | |
| 20260902224017 | 80 | 0.0 | 1.0 | 0.00 | 0.45 | 0.45 | 75 | 1014.2 | |
| 20260902223017 | 81 | 225 | 1.0 | 3.0 | 0.00 | 0.45 | 0.45 | 75 | 1014.2 |
| 20260902222038 | 81 | 225 | 1.0 | 3.0 | 0.00 | 0.45 | 0.45 | 74 | 1014.4 |
| 20260902221018 | 81 | 248 | 2.0 | 4.0 | 0.00 | 0.45 | 0.45 | 75 | 1014.5 |
| 20260902220018 | 81 | 225 | 2.0 | 4.0 | 0.00 | 0.45 | 0.45 | 73 | 1014.5 |
| 20260902215038 | 81 | 248 | 3.0 | 4.0 | 0.00 | 0.45 | 0.45 | 74 | 1014.7 |
| 20260902214017 | 81 | 248 | 2.0 | 4.0 | 0.00 | 0.45 | 0.45 | 75 | 1014.8 |
| 20260902213017 | 81 | 225 | 2.0 | 5.0 | 0.00 | 0.45 | 0.45 | 74 | 1014.7 |
| 20260902212017 | 81 | 225 | 1.0 | 4.0 | 0.00 | 0.45 | 0.45 | 75 | 1014.7 |
| 20260902211017 | 81 | 248 | 1.0 | 3.0 | 0.00 | 0.45 | 0.45 | 77 | 1014.8 |
| 20260902210020 | 81 | 225 | 2.0 | 4.0 | 0.00 | 0.45 | 0.45 | 76 | 1014.8 |
| 20260902205018 | 80 | 225 | 2.0 | 5.0 | 0.00 | 0.45 | 0.45 | 81 | 1015.0 |
| 20260902204017 | 79 | 248 | 3.0 | 6.0 | 0.00 | 0.45 | 0.45 | 83 | 1015.0 |
| 20260902203022 | 77 | 270 | 1.0 | 5.0 | 0.00 | 0.45 | 0.45 | 93 | 1015.0 |